Regional Weather Roundup
Issued by NWS

Home | Current Version | Previous Version | Graphics & Text | Print | Product List | Glossary On
Versions: 1 2 3 4 5 6 7 8 9 10 11 12 13 14 15 16 17 18 19 20 21 22 23 24 25 26 27 28 29 30 31 32 33 34 35 36 37 38 39 40 41 42 43 44 45 46 47 48 49 50
000
ASUS43 KLMK 152010
RWRKY
KENTUCKY REGIONAL WEATHER ROUNDUP
NATIONAL WEATHER SERVICE LOUISVILLE KY
400 PM EDT TUE APR 15 2014

NOTE "FAIR" INDICATES FEW OR NO CLOUDS BELOW 12,000 FEET
WITH NO SIGNIFICANT WEATHER AND/OR OBSTRUCTIONS TO VISIBILITY.

KYZ001>023-026-027-061>063-070>075-152100-
WESTERN AND SOUTH CENTRAL KENTUCKY

CITY           SKY/WX    TMP DP  RH WIND       PRES   REMARKS
PADUCAH        MOSUNNY   49  23  36 N13       30.20S
HENDERSON      CLOUDY    43  23  45 N12G17    30.20S
OWENSBORO      PTSUNNY   42  21  43 NW14G21   30.19R
HOPKINSVILLE   MOSUNNY   45  23  42 N13       30.17F
BOWLING GREEN  PTSUNNY   44  19  36 N10G18    30.15R
GLASGOW        PTSUNNY   44  23  42 N15       30.12R
$$

KYZ024-025-028>034-038-045-046-053-152100-
NORTH CENTRAL KENTUCKY

CITY           SKY/WX    TMP DP  RH WIND       PRES   REMARKS
LOUISVILLE/SDF PTSUNNY   44  21  40 N12       30.13S
LOUISVILLE/LOU CLOUDY    44  22  41 VRB7      30.13F
FORT KNOX      PTSUNNY   42  21  44 N10       30.11S
$$

KYZ035>037-039>044-047>052-055>060-089>105-152100-
NORTHEAST KENTUCKY

CITY           SKY/WX    TMP DP  RH WIND       PRES   REMARKS
LEXINGTON      CLOUDY    40  25  55 NW15      30.09S WCI  32
COVINGTON      CLOUDY    40  20  44 NW14G20   30.10R WCI  32
FRANKFORT      CLOUDY    39  25  57 NW12      30.10R WCI  32
$$

KYZ054-064>069-076>088-106>120-152100-
SOUTHEAST KENTUCKY

CITY           SKY/WX    TMP DP  RH WIND       PRES   REMARKS
JACKSON        CLOUDY    35  27  72 NW7       30.05S WCI  29
LONDON         CLOUDY    40  28  62 N10       30.05F WCI  33
SOMERSET       CLOUDY    37  30  75 N7        30.09F WCI  32
MIDDLESBORO    CLOUDY    37  30  73 N10       30.05S WCI  30
MONTICELLO     CLOUDY    39  32  76 N10       30.10S WCI  32
$$




USA.gov is the U.S. government's official web portal to all federal, state and local government web resources and services.